Yuma MCAS, AZ

12:16 PM MST on August 18, 2017 (GMT -0700)
Yuma Marine Corps Air Station

Weather History for KNYL - September, 2013

Change the Weather History Date:

Friday, September 6, 2013

  Actual Average Record
Temperature  
Mean Temperature 95 °F 92 °F  
Max Temperature 107 °F 104 °F 113 °F (1986)
Min Temperature 83 °F 80 °F 58 °F (1911)
Degree Days  
Heating Degree Days 0 0  
Month to date heating degree days 0 0  
Since 1 July heating degree days 0 0  
Cooling Degree Days 30 27  
Month to date cooling degree days 184 165  
Year to date cooling degree days 3882 3618  
Growing Degree Days 44 (Base 50)    
Moisture  
Dew Point 62 °F    
Average Humidity 39    
Maximum Humidity 61    
Minimum Humidity 17    
Precipitation  
Precipitation 0.01 in 0.01 in 0.25 in (1939)
Month to date precipitation 0.03 0.10  
Year to date precipitation 1.83 2.19  
Sea Level Pressure  
Sea Level Pressure 29.76 in    
Wind  
Wind Speed 10 mph (South)    
Max Wind Speed 33 mph    
Max Gust Speed 41 mph    
Visibility 9 miles    
Events Rain , Thunderstorm    
T = Trace of Precipitation, MM = Missing Value Source: NWS Daily Summary

Daily Weather History Graph

Daily Weather History Graph

Search for Another Location

Airport or City:

Trip Planner

Search our weather history database for the weather conditions in past years. The results will help you decide how hot, cold, wet, or windy it might be!

Date:

Astronomy

Sep. 06, 2013 Rise Set
Actual Time 6:16 AM MST 6:56 PM MST
Civil Twilight 5:51 AM MST 7:21 PM MST
Nautical Twilight 5:22 AM MST 7:50 PM MST
Astronomical Twilight 4:52 AM MST 8:20 PM MST
Moon 7:26 AM MST (9/6) 7:31 PM MST (9/6)
Length of Visible Light 13h 29m
Length of Day
12h 39m
New Moon, 2% of the Moon is Illuminated
Sep 6
New Moon
Sep 12
First Quarter
Sep 19
Full
Sep 26
Last Quarter
Oct 4
New

Hourly Weather History & Observations

Time (MST) Temp. Heat Index Dew Point Humidity Pressure Visibility Wind Dir Wind Speed Gust Speed Precip Events Conditions
12:57 AM 91.9 °F 91.5 °F 60.1 °F 34% 29.75 in 10.0 mi South 3.5 mph - N/A   Scattered Clouds
1:57 AM 88.0 °F 88.4 °F 62.1 °F 42% 29.75 in 10.0 mi South 6.9 mph - N/A   Scattered Clouds
2:57 AM 87.1 °F 87.0 °F 61.0 °F 41% 29.75 in 10.0 mi South 4.6 mph - N/A   Scattered Clouds
3:57 AM 86.0 °F 86.8 °F 63.0 °F 46% 29.75 in 10.0 mi SSE 5.8 mph - N/A   Partly Cloudy
4:57 AM 86.0 °F 86.3 °F 62.1 °F 44% 29.75 in 10.0 mi Calm Calm - N/A   Partly Cloudy
5:57 AM 86.0 °F 86.8 °F 63.0 °F 46% 29.77 in 10.0 mi South 4.6 mph - N/A   Mostly Cloudy
6:57 AM 86.0 °F 90.1 °F 69.1 °F 57% 29.78 in 10.0 mi South 5.8 mph - N/A   Mostly Cloudy
7:57 AM 90.0 °F 93.6 °F 68.0 °F 48% 29.80 in 10.0 mi South 6.9 mph - N/A   Scattered Clouds
8:57 AM 93.0 °F 96.4 °F 66.9 °F 42% 29.81 in 10.0 mi South 6.9 mph - N/A   Scattered Clouds
9:57 AM 96.1 °F 98.3 °F 64.0 °F 35% 29.82 in 10.0 mi SSW 5.8 mph - N/A   Mostly Cloudy
10:57 AM 100.0 °F 101.2 °F 61.0 °F 28% 29.82 in 10.0 mi South 10.4 mph - N/A   Scattered Clouds
11:57 AM 102.9 °F 103.6 °F 60.1 °F 24% 29.80 in 10.0 mi South 10.4 mph - N/A   Scattered Clouds
12:57 PM 105.1 °F 104.4 °F 57.0 °F 20% 29.78 in 10.0 mi South 8.1 mph - N/A   Mostly Cloudy
1:57 PM 102.9 °F 104.8 °F 62.1 °F 26% 29.75 in 10.0 mi SSE 15.0 mph - N/A   Mostly Cloudy
2:57 PM 106.0 °F - 52.0 °F 17% 29.70 in 10.0 mi West 8.1 mph - N/A   Mostly Cloudy
3:53 PM 104.0 °F 102.9 °F 55.4 °F 20% 29.70 in 10.0 mi SE 16.1 mph - N/A   Scattered Clouds
3:57 PM 105.1 °F 103.8 °F 55.0 °F 19% 29.69 in 10.0 mi SSE 10.4 mph - N/A   Scattered Clouds
4:57 PM 102.9 °F 101.4 °F 54.0 °F 20% 29.69 in 10.0 mi SE 10.4 mph - N/A   Mostly Cloudy
5:24 PM 102.9 °F 101.4 °F 54.0 °F 20% 29.69 in 10.0 mi SE 9.2 mph - N/A Thunderstorm Mostly Cloudy
5:57 PM 93.0 °F 94.2 °F 63.0 °F 37% 29.72 in 0.2 mi SW 29.9 mph 38.0 mph N/A Thunderstorm Widespread Dust
6:10 PM 88.0 °F 89.3 °F 64.0 °F 45% 29.73 in 0.2 mi SW 25.3 mph 41.4 mph N/A Thunderstorm Widespread Dust
6:35 PM 90.0 °F 90.0 °F 61.0 °F 38% 29.73 in 7.0 mi WSW 19.6 mph - 0.00 in Rain , Thunderstorm Light Thunderstorms and Rain
6:57 PM 91.0 °F 90.5 °F 60.1 °F 35% 29.72 in 7.0 mi West 9.2 mph - 0.00 in Thunderstorm Thunderstorm
7:22 PM 91.4 °F 91.4 °F 60.8 °F 36% 29.72 in 10.0 mi WNW 9.2 mph - N/A   Mostly Cloudy
7:57 PM 93.9 °F 93.6 °F 60.1 °F 32% 29.73 in 10.0 mi NW 6.9 mph - N/A   Scattered Clouds
8:53 PM 87.8 °F 89.4 °F 64.4 °F 46% 29.82 in 4.0 mi ENE 25.3 mph 39.1 mph N/A Thunderstorm Unknown
8:57 PM 89.1 °F 91.0 °F 64.9 °F 45% 29.81 in 5.0 mi ENE 18.4 mph 39.1 mph N/A Thunderstorm Unknown
9:28 PM 82.9 °F 87.0 °F 70.0 °F 65% 29.82 in 10.0 mi ENE 19.6 mph - 0.01 in Rain , Thunderstorm Light Thunderstorms and Rain
9:57 PM 84.0 °F 87.8 °F 69.1 °F 61% 29.83 in 10.0 mi East 8.1 mph - 0.01 in Thunderstorm Thunderstorm
10:57 PM 84.9 °F 86.6 °F 64.9 °F 51% 29.83 in 10.0 mi SE 20.7 mph - N/A Thunderstorm Thunderstorm
11:57 PM 84.9 °F 85.9 °F 63.0 °F 48% 29.81 in 10.0 mi ENE 6.9 mph - N/A   Overcast